Weather History for Fort Wayne, IN

Change the Weather History Date:

Tuesday, April 10, 2012

  Actual Average Record
Temperature  
Mean Temperature 3 °C 9 °C  
Max Temperature 7 °C 15 °C 28 °C (1930)
Min Temperature -1 °C 3 °C -7 °C (1989)
Degree Days  
Heating Degree Days 27 17  
Month to date heating degree days 142 189  
Since 1 July heating degree days 4531 5613  
Cooling Degree Days 0 0  
Month to date cooling degree days 0 0  
Year to date cooling degree days 27 0  
Moisture  
Dew Point -5 °C    
Average Humidity 58    
Maximum Humidity 72    
Minimum Humidity 43    
Precipitation  
Precipitation T mm 3.30 mm 3.43 mm (1939)
Month to date precipitation 0.04 1.20  
Year to date precipitation 8.04 8.21  
Snow  
Snow T cm 0.25 cm 2.29 cm (1921)
Month to date snowfall T 0.6  
Since 1 July snowfall 32.2 33.1  
Snow Depth 0.00 cm    
Sea Level Pressure  
Sea Level Pressure 1017 hPa    
Wind  
Wind Speed 19 km/h (NW)    
Max Wind Speed 34 km/h    
Max Gust Speed 45 km/h    
Visibility 16 kilometers    
Events      
T = Trace of Precipitation, MM = Missing Value Source: NWS Daily Summary

Daily Weather History Graph

Daily Weather History Graph

Search for Another Location

Airport:

Trip Planner

Search our weather history database for the weather conditions in past years. The results will help you decide how hot, cold, wet, or windy it might be!

Date:

Astronomy

Apr. 10, 2012 Rise Set
Actual Time 7:08 AM EDT 8:15 PM EDT
Civil Twilight 6:40 AM EDT 8:44 PM EDT
Nautical Twilight 6:06 AM EDT 9:17 PM EDT
Astronomical Twilight 5:31 AM EDT 9:53 PM EDT
Moon 12:11 AM EDT (4/10) 9:51 AM EDT (4/10)
Length of Visible Light 14h 03m
Length of Day
13h 07m
Waning Gibbous, 79% of the Moon is Illuminated
Apr 10
Waning Gibbous
Apr 13
Last Quarter
Apr 21
New
Apr 29
First Quarter
May 5
Full

Hourly Weather History & Observations

Time (EDT) Temp. Windchill Dew Point Humidity Pressure Visibility Wind Dir Wind Speed Gust Speed Precip Events Conditions
12:54 AM 6.7 °C 4.2 °C -4.4 °C 45% 1014.1 hPa 16.1 km NW 13.0 km/h / 3.6 m/s - N/A   Clear
1:54 AM 6.1 °C 3.8 °C -3.9 °C 49% 1014.5 hPa 16.1 km NW 11.1 km/h / 3.1 m/s - N/A   Clear
2:54 AM 5.0 °C 1.3 °C -2.8 °C 57% 1014.7 hPa 16.1 km NW 18.5 km/h / 5.1 m/s - N/A   Clear
3:54 AM 3.9 °C 1.5 °C -3.9 °C 57% 1014.8 hPa 16.1 km NW 9.3 km/h / 2.6 m/s - N/A   Clear
4:54 AM 3.3 °C 0.0 °C -3.9 °C 60% 1015.0 hPa 16.1 km WNW 13.0 km/h / 3.6 m/s - N/A   Clear
5:54 AM 2.8 °C -1.5 °C -4.4 °C 59% 1015.1 hPa 16.1 km WNW 18.5 km/h / 5.1 m/s - N/A   Partly Cloudy
6:54 AM 2.2 °C -2.0 °C -5.6 °C 57% 1015.3 hPa 16.1 km WNW 16.7 km/h / 4.6 m/s - N/A   Partly Cloudy
7:54 AM 2.2 °C -2.0 °C -5.0 °C 59% 1015.5 hPa 16.1 km WNW 16.7 km/h / 4.6 m/s - N/A   Partly Cloudy
8:54 AM 3.9 °C -0.3 °C -5.0 °C 53% 1015.8 hPa 16.1 km WNW 20.4 km/h / 5.7 m/s 31.5 km/h / 8.7 m/s N/A   Scattered Clouds
9:54 AM 4.4 °C -0.3 °C -5.0 °C 51% 1015.7 hPa 16.1 km WNW 25.9 km/h / 7.2 m/s 33.3 km/h / 9.3 m/s N/A   Mostly Cloudy
10:54 AM 5.0 °C 0.4 °C -5.0 °C 49% 1016.1 hPa 16.1 km NW 25.9 km/h / 7.2 m/s 40.7 km/h / 11.3 m/s N/A   Mostly Cloudy
11:54 AM 5.0 °C 0.6 °C -6.1 °C 45% 1016.4 hPa 16.1 km NW 24.1 km/h / 6.7 m/s 40.7 km/h / 11.3 m/s N/A   Overcast
12:54 PM 4.4 °C -0.1 °C -6.1 °C 47% 1016.8 hPa 16.1 km NW 24.1 km/h / 6.7 m/s 40.7 km/h / 11.3 m/s N/A   Overcast
1:54 PM 5.6 °C 0.9 °C -5.6 °C 45% 1016.7 hPa 16.1 km WNW 29.6 km/h / 8.2 m/s 38.9 km/h / 10.8 m/s N/A   Overcast
2:54 PM 5.0 °C 1.0 °C -6.0 °C 45% 1016.1 hPa 16.1 km NW 20.4 km/h / 5.7 m/s - N/A   Overcast
3:54 PM 3.9 °C -0.8 °C -5.0 °C 53% 1017.3 hPa 16.1 km WNW 24.1 km/h / 6.7 m/s 38.9 km/h / 10.8 m/s N/A   Overcast
4:54 PM 3.9 °C -0.3 °C -5.6 °C 50% 1017.7 hPa 16.1 km WNW 20.4 km/h / 5.7 m/s 40.7 km/h / 11.3 m/s 0.0 mm   Overcast
5:54 PM 3.9 °C -0.8 °C -5.6 °C 50% 1018.1 hPa 16.1 km NNW 24.1 km/h / 6.7 m/s 38.9 km/h / 10.8 m/s N/A   Overcast
6:54 PM 3.9 °C -0.8 °C -6.1 °C 49% 1018.6 hPa 16.1 km NW 24.1 km/h / 6.7 m/s 38.9 km/h / 10.8 m/s N/A   Overcast
7:54 PM 3.3 °C -1.3 °C -6.1 °C 51% 1019.0 hPa 16.1 km WNW 22.2 km/h / 6.2 m/s - N/A   Mostly Cloudy
8:54 PM 2.2 °C -1.3 °C -5.6 °C 57% 1019.3 hPa 16.1 km NW 13.0 km/h / 3.6 m/s - N/A   Scattered Clouds
9:54 PM 1.7 °C -1.9 °C -4.4 °C 64% 1019.5 hPa 16.1 km NW 13.0 km/h / 3.6 m/s - N/A   Mostly Cloudy
10:54 PM 1.1 °C -1.8 °C -4.4 °C 67% 1019.5 hPa 16.1 km NW 9.3 km/h / 2.6 m/s - N/A   Partly Cloudy
11:54 PM 0.0 °C -3.1 °C -4.4 °C 73% 1019.6 hPa 16.1 km WNW 9.3 km/h / 2.6 m/s - N/A   Partly Cloudy